Location: Nakusp
(50.2330°N, 117.8000°W)
Time: 10:58:51
(UTC-07:00)

Daily predictions for brighter satellites

Satellite Brightness Start Highest point End
(mag) Time Altitude Azimuth Time Altitude Azimuth Time Altitude Azimuth
Cosmos 1844 Rocket 3.4 20:33:22 10° NNW 20:38:35 39° NE 20:43:48 10° ESE
Cosmos 2278 Rocket 3.8 20:35:10 10° NNW 20:39:40 23° NE 20:44:07 10° E
Sich 1 Rocket 4.0 20:36:53 10° N 20:41:16 49° ENE 20:45:38 10° SSE
SPOT 5 4.1 20:40:04 10° ESE 20:43:52 25° ENE 20:47:34 10° N
Cosmos 1933 3.4 20:40:08 10° S 20:44:05 57° E 20:48:04 10° NNE
CZ-4C R/B 3.6 20:42:40 10° NW 20:48:59 43° NNE 20:56:07 10° E
Cosmos 1782 Rocket 4.3 20:45:01 10° N 20:49:05 36° ENE 20:53:08 10° SE
Cosmos 1733 Rocket 3.6 20:46:45 10° NNW 20:51:11 64° W 20:55:35 10° S
USA 229 DEB 4.2 20:47:23 10° S 20:53:29 36° ESE 20:59:43 10° NE
USA 229 4.2 20:47:30 10° S 20:53:36 36° ESE 20:59:49 10° NE
Cosmos 1862 4.0 20:49:45 10° NNW 20:53:44 58° W 20:57:42 10° S
Cosmos 1992 Rocket 4.0 20:49:34 10° SSW 20:54:49 83° ESE 21:00:06 10° NNE
Cosmos 1777 Rocket 4.3 20:51:41 10° NNW 20:56:53 55° ENE 21:02:02 10° SE
Meteor 2-10 Rocket 3.9 20:52:35 10° S 20:58:15 56° E 21:03:51 10° NNE
Helios 1A 3.7 20:55:26 10° S 20:59:37 57° W 21:03:50 10° NNW
Okean 1-7 4.1 20:58:29 10° SSE 21:02:14 28° E 21:06:00 10° NNE
Okean 2 Rocket 3.8 21:00:06 10° N 21:04:22 38° ENE 21:08:18 11° SE
Cosmos 2219 Rocket 3.7 21:01:41 10° SE 21:05:07 17° E 21:08:33 10° ENE
Cosmos 1862 Rocket 3.8 21:01:39 10° SSW 21:06:08 80° W 21:10:40 10° N
Cosmos 1782 4.3 21:05:58 12° SE 21:08:22 19° E 21:11:16 10° NE
Cosmos 2084 4.0 21:06:56 10° NW 21:10:33 40° NE 21:13:51 13° ESE
Cosmos 1633 4.4 21:09:04 10° NNE 21:11:35 17° ENE 21:13:34 12° ESE
USA 186 4.2 21:09:40 10° SW 21:11:54 20° W 21:14:17 10° NW
USA 267 3.3 21:07:44 10° ENE 21:14:19 87° SE 21:20:54 10° WSW
Meteor 1-26 Rocket 4.3 21:13:10 10° S 21:18:50 69° E 21:24:39 10° NNE
Cosmos 2263 Rocket 3.7 21:16:02 10° NW 21:20:54 32° WSW 21:25:45 10° SSW
Cosmos 1939 Rocket 3.8 21:17:05 10° S 21:20:59 48° W 21:24:51 10° NNW
Cosmos 968 Rocket 4.2 21:18:08 10° NNW 21:23:12 53° WSW 21:28:16 10° S
Abrixas rocket 2.2 21:22:19 10° W 21:25:35 61° S 21:27:47 19° ESE
Cosmos 1703 Rocket 3.5 21:22:26 10° S 21:26:51 69° E 21:31:15 10° NNE
Terra 3.3 21:23:55 13° ESE 21:26:56 23° ENE 21:30:37 10° N
ATLAS 3B R/B 4.2 21:20:50 10° NW 21:26:58 30° NNE 21:32:48 10° ENE
Meteor 1-29 3.7 21:24:32 10° N 21:27:59 57° WNW 21:31:22 10° SSW
Helios 1B rocket 3.6 21:32:46 10° N 21:36:42 45° WNW 21:40:36 10° SW
Cosmos 2322 Rocket 3.5 21:32:39 10° WSW 21:38:00 43° NW 21:43:24 10° NNE
Cosmos 2237 4.2 21:32:53 10° SSW 21:38:32 61° ESE 21:44:10 10° NE
Cosmos 2151 Rocket 4.2 21:34:33 10° N 21:38:48 42° ENE 21:41:23 21° SE
Atlas Centaur 2 4.4 21:38:47 10° SSW 21:42:35 15° S 21:44:38 14° SSE
Cosmos 2360 Rocket 2.3 21:39:40 10° SSW 21:45:20 80° WNW 21:51:04 10° NNE
MetOp-B 4.2 21:40:38 13° SSE 21:45:26 83° WSW 21:50:51 10° NNW
COSMOS 2428 2.8 21:42:25 10° S 21:47:57 56° ESE 21:53:33 10° NE
Cosmos 2266 Rocket 4.4 21:42:58 10° NNW 21:49:10 64° W 21:55:27 10° S
USA 234 3.9 21:46:49 16° SSE 21:51:50 44° SW 21:58:03 10° WNW
Cosmos 2221 Rocket 3.6 21:47:28 10° S 21:51:54 89° WNW 21:56:23 10° N
YAOGAN 11 4.2 21:48:42 16° S 21:52:09 72° WSW 21:56:30 10° NNW
ATLAS 5 CENTAUR R/B 4.0 21:47:50 10° WNW 21:52:43 26° WSW 21:57:54 10° S
H-2A R/B 2.1 21:49:47 22° SE 21:52:55 59° ENE 21:57:46 10° N
Meteor 1-11 Rocket 4.1 21:47:37 10° N 21:52:58 47° ENE 21:56:09 23° SE
Okean 1 Rocket 4.4 21:49:38 10° NNE 21:53:22 26° ENE 21:55:07 20° ESE
Meteor 1-10 Rocket 4.5 21:48:38 15° SSE 21:53:28 53° E 21:59:08 10° NNE
Cosmos 1606 3.0 21:52:07 27° SSE 21:53:46 44° E 21:57:23 10° NNE
Cosmos 1844 3.7 21:48:53 10° NNW 21:54:36 86° WSW 21:58:22 22° SSE
NOAA 11 4.5 21:52:39 13° S 21:57:35 66° WSW 22:03:04 10° NNW
Cosmos 2322 4.0 21:57:44 10° SW 22:03:26 70° WNW 22:09:09 10° NNE
SL-16 R/B 4.1 22:04:06 13° E 22:04:06 13° E 22:06:10 10° ENE
ARGOS 3.3 22:00:30 18° S 22:04:36 75° WSW 22:10:01 10° NNW
MOS 1-B Rocket 3.9 22:00:06 17° S 22:04:37 79° WSW 22:10:15 10° NNW
Cosmos 1570 Rocket 4.3 22:03:08 21° S 22:06:24 46° ESE 22:11:27 10° NNE
ERS-1 Rocket 4.2 22:02:27 10° SSW 22:07:08 38° W 22:11:50 10° NNW
SeaSat 1 2.5 22:04:32 25° SSE 22:07:29 78° WSW 22:12:28 10° NNW
Cosmos 1536 3.9 22:04:19 10° N 22:07:58 31° ENE 22:09:05 27° ESE
SL-16 R/B 4.3 22:04:10 10° WSW 22:09:08 30° NW 22:14:07 10° NNE
Cosmos 1937 Rocket 4.3 22:04:23 10° NNW 22:09:22 39° ENE 22:11:58 24° ESE
H-2A R/B 2.4 22:08:08 30° SE 22:09:57 53° ENE 22:14:15 10° N
Cosmos 2208 Rocket 4.2 22:13:58 23° S 22:17:06 52° ESE 22:22:15 10° NNE
SL-08 RB Rocket 4.0 22:17:32 23° S 22:20:17 62° WSW 22:24:49 10° NNW
SPOT 5 3.5 22:18:27 18° S 22:21:45 48° W 22:26:10 10° NNW
Cosmos 1844 Rocket 3.5 22:17:18 10° NW 22:22:33 43° WSW 22:26:05 20° S
Cosmos 2237 Rocket 2.7 22:22:05 30° SSE 22:24:00 39° ESE 22:29:15 10° NE
CZ-4C R/B 4.5 22:23:25 25° E 22:24:02 26° ENE 22:27:05 10° N
Cosmos 2278 Rocket 2.2 22:18:49 10° NNW 22:24:32 89° WSW 22:27:20 32° SSE
SL-08 R/B 4.4 22:19:01 10° N 22:25:13 81° E 22:28:38 28° SSE
Cosmos 2333 4.2 22:19:51 10° SSW 22:25:36 90° WNW 22:31:26 10° NNE
USA 129 4.0 22:24:24 10° N 22:25:13 21° N 22:25:13 21° N
Cosmos 2150 Rocket 4.4 22:21:51 10° NNW 22:27:13 55° ENE 22:29:37 31° SE
Cosmos 2333 Rocket 2.3 22:23:51 23° S 22:27:23 55° ESE 22:33:01 10° NE
Cosmos 1300 Rocket 3.5 22:23:52 10° N 22:28:13 69° ENE 22:29:37 41° SSE
Iridium 4 Rocket 3.2 22:24:37 10° N 22:28:42 52° E 22:29:42 41° SE
Cosmos 1553 Rocket 4.0 22:26:20 26° S 22:30:02 67° E 22:36:11 10° NNE
Meteor 2-6 Rocket 4.3 22:25:54 17° S 22:30:38 89° E 22:36:37 10° NNE
Cosmos 1898 Rocket 3.4 22:29:24 10° NNW 22:34:38 78° ENE 22:36:41 38° SE
ASTEX 1 3.3 22:34:28 35° SSE 22:36:39 84° E 22:41:39 10° N
NOSS 3-1 (C) 3.4 22:31:38 10° SSW 22:37:26 67° SE 22:44:03 10° NE
CZ-4C R/B 2.9 22:31:10 10° NW 22:38:07 74° SW 22:42:12 30° SSE
SPOT 1/Viking Rocket 4.2 22:37:50 22° SSW 22:40:57 49° W 22:46:01 10° NNW
USA 229 DEB 4.1 22:37:17 10° SW 22:44:07 67° NW 22:51:08 10° NE
USA 229 4.1 22:37:24 10° SW 22:44:13 67° NW 22:51:14 10° NE
Cosmos 1782 3.9 22:41:34 16° SW 22:44:26 42° WNW 22:48:17 10° N
Cosmos 1633 3.5 22:43:18 10° NNW 22:46:48 42° W 22:47:52 33° SW
Cosmos 2219 Rocket 2.1 22:43:11 13° SSW 22:48:16 90° WNW 22:53:57 10° NNE
TRAILBLAZER 4.5 22:44:26 12° SW 22:48:35 86° SE 22:53:11 10° NE
Meteor 1-5 Rocket 4.3 22:43:26 10° N 22:49:06 72° ENE 22:51:18 39° SSE
CRYOSAT 2 4.3 22:47:31 42° SSE 22:49:11 82° E 22:54:05 10° N
Landsat 7 4.2 22:47:11 32° SSW 22:49:12 57° W 22:53:55 10° NNW
Cosmos 2084 4.3 22:46:33 10° WNW 22:49:59 31° SW 22:50:26 30° SW
Cosmos 1602 4.4 22:48:42 10° NNW 22:52:26 48° W 22:53:25 38° SW
NOSS 3-1 (A) 3.4 22:49:49 19° SSW 22:54:12 65° SE 23:00:49 10° NE
ATLAS 2AS CENTAUR R/B 4.0 22:55:31 25° ESE 22:56:11 26° ESE 23:02:28 10° ENE
Cosmos 1378 Rocket 3.7 22:56:21 52° ESE 22:56:51 56° E 23:01:13 10° NNE
Cosmos 1386 Rocket 4.5 22:50:29 10° N 22:56:57 89° E 22:59:44 36° S
USA 267 4.0 22:50:47 10° ENE 22:57:08 54° NNW 23:03:28 10° W
Cosmos 1346 Rocket 3.0 22:57:34 43° SW 22:58:42 66° WNW 23:02:42 10° N
PSLV R/B 4.0 23:00:15 44° NW 23:00:15 44° NW 23:02:29 10° NNW
S3M 4.0 22:57:45 27° SSW 23:01:21 81° W 23:07:37 10° N
Abrixas rocket 4.3 22:59:11 10° W 23:00:27 19° WSW 23:00:27 19° WSW
Cosmos 1814 Rocket 4.3 23:02:06 42° ESE 23:02:28 43° ESE 23:07:20 10° NE
CZ-2C R/B 4.4 23:01:44 21° E 23:03:18 24° ENE 23:07:17 10° N
Cosmos 1709 Rocket 4.1 22:57:32 10° N 23:03:55 66° ENE 23:06:16 40° SE
Terra 2.2 23:02:47 39° SSW 23:04:20 58° W 23:09:03 10° NNW
Cosmos 1544 Rocket 4.5 23:00:58 10° N 23:05:02 34° ENE 23:05:31 34° E
deb Chang Zheng 4 3.5 23:03:33 10° NNE 23:07:59 84° WNW 23:09:04 51° SSW
Meteor 2-11 Rocket 4.4 23:06:55 33° SSW 23:09:54 85° W 23:16:03 10° N
Cosmos 1812 3.9 23:11:32 31° ENE 23:11:32 31° ENE 23:14:22 10° NNE
Okean 3 3.2 23:11:26 73° SSE 23:11:46 80° E 23:15:58 10° NNE
Cosmos 468 Rocket 3.9 23:10:49 49° S 23:12:10 69° ESE 23:17:29 10° NNE
Meteor 1-27 Rocket 4.0 23:11:23 25° SSW 23:14:38 63° WNW 23:20:11 10° N
ATLAS CENTAUR R/B 2.9 23:18:47 23° ENE 23:18:47 23° ENE 23:20:40 10° NE
CZ-4B R/B 3.2 23:12:23 10° NNE 23:17:10 75° ESE 23:18:02 58° S
CARTOSAT-1 4.5 23:17:11 34° SW 23:18:11 40° W 23:22:18 10° NNW
ATLAS 3B R/B 2.9 23:12:06 10° NW 23:19:00 62° NE 23:22:22 30° ESE
Geosat 3.9 23:14:07 10° NNE 23:19:11 75° ESE 23:20:28 50° S
Cosmos 2369 Rocket 3.7 23:14:24 10° NNW 23:19:16 29° NE 23:22:21 18° E
Cosmos 1607 4.2 23:13:26 10° NW 23:19:45 63° NE 23:22:36 34° ESE
Cosmos 2297 3.7 23:15:08 10° NNW 23:20:51 73° WSW 23:22:22 49° S
Spot 4 3.9 23:20:41 54° SSW 23:21:40 70° WSW 23:26:27 10° NNW
Cosmos 1975 3.6 23:19:14 10° N 23:22:55 40° ENE 23:22:55 40° ENE
Cosmos 1943 Rocket 4.2 23:21:54 10° NNW 23:26:14 22° NE 23:30:30 10° E
Cosmos 841 Rocket 3.9 23:26:44 42° ESE 23:26:44 42° ESE 23:31:34 10° NE
Aureole 2 Rocket 4.0 23:29:02 28° NNW 23:29:02 28° NNW 23:30:48 10° N
USA 81 4.1 23:29:19 54° SE 23:30:08 61° E 23:35:21 10° NNE
Okean 1 Rocket 4.0 23:27:15 10° NNW 23:31:25 39° W 23:32:19 35° WSW
CZ-4 R/B 4.0 23:27:32 10° N 23:32:19 72° WNW 23:33:41 46° SW
COSMOS 2428 4.3 23:27:26 10° WSW 23:32:33 33° NW 23:37:42 10° NNE
H-2A R/B 3.8 23:30:25 16° SW 23:32:44 21° W 23:36:29 10° NW
Cosmos 2074 Rocket 4.4 23:26:55 10° N 23:32:57 50° ENE 23:34:44 39° ESE
Cosmos 2292 Rocket 4.2 23:30:34 10° NNW 23:32:36 33° NW 23:32:36 33° NW
Cosmos 1455 Rocket 3.3 23:29:35 10° N 23:34:00 55° ENE 23:34:11 54° E
CZ-4B R/B 4.2 23:37:21 11° ENE 23:37:21 11° ENE 23:38:09 10° NE
Cosmos 1980 4.1 23:37:04 21° SW 23:40:48 60° WNW 23:46:26 10° NNE
Cosmos 371 Rocket 3.3 23:42:58 62° ESE 23:43:00 62° ESE 23:47:50 10° NNE
USA 238 DEB 4.0 23:36:26 10° NW 23:43:29 67° NE 23:47:05 31° ESE
USA 238 4.0 23:36:31 10° NW 23:43:35 66° NE 23:47:13 31° ESE
Cosmos 1536 4.4 23:40:55 10° NNW 23:44:20 26° W 23:44:50 26° WSW
Cosmos 2285 Rocket 3.9 23:43:12 47° S 23:45:10 78° ESE 23:51:34 10° NNE
SL-08 ROCKET BODY 4.4 23:39:42 10° N 23:45:39 70° ENE 23:47:04 52° SE
H-2A R/B 4.0 23:45:15 18° WSW 23:46:18 20° W 23:49:31 10° NW
SL-16 R/B 2.1 23:45:55 58° S 23:46:55 72° ESE 23:52:37 10° NNE
Cosmos 1340 3.1 23:49:42 61° NNE 23:49:42 61° NNE 23:52:54 10° NNE
Cosmos 1937 Rocket 4.4 23:46:31 10° NW 23:51:17 36° WSW 23:52:08 34° SW
